OPS 4682 DEB, 38457

Orbit data source: Space-Track

OPS 4682 DEB, 38457 is space debris in LEO originally from a launch on Sat, 03 Apr 1965 UTC launched from the Air Force Western Test Range (AFWTR). Debris objects in space refer to the collection of defunct objects orbiting the Earth. Examples of debris include non-operational satellites, rocket bodies, and fragments generated from explosions, collisions, or faulty payload assembly.

Loading next visibility...
Identifier
38457, 1965-027FN
Orbit
LEO
Country
Flag of USUS
Related business
Manufacturer
Unknown
Mission
Spacecraft
Bus & Motor
Unknown
Mass
Unknown
Launch date (UTC)
1965-04-03 (61 years ago)
Launch vehicle
Unknown
Launch site
Air Force Western Test Range (AFWTR)
Object type
Payload
Rocket body
Debris
Shape & HBR
Unknown shape, 0.1 m
Radar Cross Section
Small (<0.1 m²)

Expand to show TLE details & history
Last TLE update: 1 week ago

TLE from 1 week ago
0 OPS 4682 DEB
1 38457U 65027FN  26026.90206925  .00000944  00000-0  31750-2 0  9991
2 38457  90.2330 359.2470 0031328  36.0198 324.3026 12.98484603593428
Epoch: 2026-01-26T21:38Z
TLE epoch observation values (Epoch: 2026-01-26T21:38:58.783Z)
Latitude
-0.00002°
Longitude
-91.68909°
Altitude
1,251.48 km
Speed
7.239 km/s
True Right ascension
23h 56m 59s
True Declination
0° 00' 00"
Sunlit
Object was in daylight at epoch
Visualization orbit readout
Latitude
Unknown
Longitude
Unknown
Altitude
Unknown
Speed
Unknown
Apparent Right ascension
Unknown
Apparent Declination
Unknown
Sunlit
N/A
Visualization observer readout
Local Sidereal Time
11:54:53
Azimuth
Unknown
Elevation
Unknown
Doppler factor
Unknown
Orbital elements
Apogee altitude
1,289.104 km
Perigee altitude
1,241.214 km
Semi-major axis
7,643.296 km
Eccentricity
0.00313
Inclination
90.233°
RAAN
359.247°
Arg. of periapsis
36.0198°
True anomaly
324.09246°
Mean anomaly
324.3026°
Eccentric anomaly
324.1976°
Mean motion
3.24805 °/min
Orbital period
110.84 mins
BSTAR
0.003175
Loading maneuver chart data...
Computing Atmospheric mass density...
Loading historical data...
Loading historical data...
Loading historical data...
Loading historical data...
Loading historical data...
Loading historical data...
Loading historical data...

Documentation

Showing up to 5 results
|